sat.trackr.live / text

‹ back to catalog

STARLINK-5412

NORAD 54806 · 2022-175BA

PAYLOAD ACTIVE UNKNOWN

§ Identity

Operator
Country
US
Launch date
2022-12-17
Launch site
AFETR
Launch vehicle
Mass (kg)
RCS (m²)

Purposes: comms

External: N2YO · Heavens-Above · Gunter

§ Orbital elements

Epoch: 2026-09-20T14:42:20.219328Z

Period
93.90 min
Inclination
53.1587°
Eccentricity
0.0000903
Mean motion
15.33539641 rev/d
Perigee alt
464.6 km
Apogee alt
465.9 km
Semi-major
6,843.4 km
B*
3.9091e-5
RAAN
217.4667°
Arg perigee
97.4625°
Mean anomaly
262.6480°
Rev number
20,978

§ Raw data

STARLINK-54121 54806U 22175BA  26263.61273402  .00000913  00000+0  39091-4 0  99922 54806  53.1587 217.4667 0000903  97.4625 262.6480 15.33539641209786

JSON: /api/v1/satellites/54806 · /tle

For live sub-satellite position, see the globe view (requires WebGL).

§ Visibility from observer

Set your observer location to see the next 7 days of passes ≥ 10°. The values pass through the URL so the page stays shareable.

No JS? Fill the form by hand. The geolocation button needs JavaScript.